Weather History for Missoula, MT

Change the Weather History Date:

Monday, February 25, 2013

  Actual Average Record
Temperature  
Mean Temperature 36 °F 32 °F  
Max Temperature 43 °F 42 °F 63 °F (1905)
Min Temperature 28 °F 23 °F -11 °F (1993)
Degree Days  
Heating Degree Days 29 33  
Month to date heating degree days 790 884  
Since 1 July heating degree days 4897 5273  
Cooling Degree Days 0 0  
Month to date cooling degree days 0 0  
Year to date cooling degree days 0 0  
Moisture  
Dew Point 23 °F    
Average Humidity 59    
Maximum Humidity 75    
Minimum Humidity 43    
Precipitation  
Precipitation 0.01 in 0.03 in 0.48 in (1917)
Month to date precipitation 0.30 0.62  
Year to date precipitation 1.45 1.47  
Snow  
Snow 0.20 in - - ()
Month to date snowfall 3.4  
Year to date snowfall 14.8  
Since 1 July snowfall 35.9  
Snow Depth 0.00 in    
Sea Level Pressure  
Sea Level Pressure 30.03 in    
Wind  
Wind Speed 6 mph (South)    
Max Wind Speed 23 mph    
Max Gust Speed 32 mph    
Visibility 9 miles    
Events Snow    
T = Trace of Precipitation, MM = Missing Value Source: NWS Daily Summary

Daily Weather History Graph

Daily Weather History Graph

Search for Another Location

Airport:

Trip Planner

Search our weather history database for the weather conditions in past years. The results will help you decide how hot, cold, wet, or windy it might be!

Date:

Astronomy

Feb. 25, 2013 Rise Set
Actual Time 7:22 AM MST 6:16 PM MST
Civil Twilight 6:52 AM MST 6:47 PM MST
Nautical Twilight 6:17 AM MST 7:22 PM MST
Astronomical Twilight 5:41 AM MST 7:57 PM MST
Moon 6:38 PM MST (2/25) 6:52 AM MST (2/25)
Length of Visible Light 11h 55m
Length of Day
10h 53m
Full, 100% of the Moon is Illuminated
Feb 25
Full
Feb 25
Full
Mar 4
Last Quarter
Mar 11
New
Mar 19
First Quarter

Hourly Weather History & Observations

Time (MST) Temp. Windchill Dew Point Humidity Pressure Visibility Wind Dir Wind Speed Gust Speed Precip Events Conditions
12:53 AM 28.9 °F 23.9 °F 21.0 °F 72% 30.19 in 10.0 mi SSE 4.6 mph - N/A   Overcast
1:53 AM 30.0 °F 24.1 °F 19.9 °F 66% 30.17 in 10.0 mi SE 5.8 mph - N/A   Overcast
2:53 AM 28.9 °F 21.9 °F 21.9 °F 75% 30.14 in 10.0 mi SSE 6.9 mph - N/A   Overcast
3:53 AM 28.0 °F 20.8 °F 21.0 °F 75% 30.11 in 10.0 mi ESE 6.9 mph - N/A   Overcast
4:53 AM 28.9 °F 20.4 °F 19.9 °F 69% 30.09 in 10.0 mi ESE 9.2 mph - N/A   Overcast
5:53 AM 30.0 °F 22.4 °F 19.9 °F 66% 30.06 in 10.0 mi SE 8.1 mph - N/A   Mostly Cloudy
6:53 AM 30.0 °F 21.7 °F 19.9 °F 66% 30.04 in 10.0 mi ESE 9.2 mph - N/A   Overcast
7:53 AM 30.0 °F 24.1 °F 19.0 °F 64% 30.02 in 10.0 mi ESE 5.8 mph - N/A   Mostly Cloudy
8:53 AM 30.0 °F 24.1 °F 19.0 °F 64% 30.01 in 10.0 mi East 5.8 mph - N/A   Overcast
9:53 AM 32.0 °F 26.4 °F 18.0 °F 56% 30.00 in 10.0 mi ESE 5.8 mph - N/A   Overcast
10:53 AM 33.1 °F - 19.0 °F 56% 29.99 in 10.0 mi Calm Calm - N/A   Overcast
11:53 AM 34.0 °F 31.0 °F 19.9 °F 56% 29.98 in 10.0 mi South 3.5 mph - N/A   Overcast
12:53 PM 37.0 °F 33.3 °F 21.0 °F 52% 29.96 in 10.0 mi SSE 4.6 mph - N/A   Overcast
1:53 PM 39.0 °F 34.0 °F 21.9 °F 50% 29.95 in 10.0 mi SW 6.9 mph - N/A   Overcast
2:53 PM 42.1 °F 34.5 °F 21.9 °F 45% 29.94 in 10.0 mi WSW 15.0 mph 24.2 mph N/A   Overcast
3:53 PM 42.1 °F 35.7 °F 23.0 °F 47% 29.96 in 10.0 mi WSW 11.5 mph 21.9 mph N/A   Overcast
4:53 PM 39.9 °F 32.9 °F 21.9 °F 49% 29.97 in 10.0 mi WSW 11.5 mph 25.3 mph N/A   Mostly Cloudy
5:53 PM 37.0 °F 31.6 °F 21.9 °F 54% 29.98 in 10.0 mi WSW 6.9 mph - N/A   Mostly Cloudy
6:53 PM 34.0 °F - 21.0 °F 59% 30.00 in 10.0 mi Calm Calm - N/A   Mostly Cloudy
7:53 PM 34.0 °F 28.0 °F 21.9 °F 61% 30.02 in 10.0 mi WSW 6.9 mph - N/A   Scattered Clouds
8:53 PM 35.1 °F 29.3 °F 23.0 °F 61% 30.03 in 10.0 mi South 6.9 mph - N/A   Overcast
9:53 PM 32.0 °F 25.6 °F 27.0 °F 82% 30.06 in 9.0 mi NNW 6.9 mph 16.1 mph 0.00 in Snow Light Snow
10:09 PM 32.0 °F 26.4 °F 28.4 °F 87% 29.99 in 9.0 mi North 5.8 mph - 0.00 in   Overcast
10:53 PM 32.0 °F - 28.0 °F 85% 30.08 in 9.0 mi Calm Calm - 0.00 in Snow Light Snow
11:30 PM 30.2 °F 25.4 °F 28.4 °F 93% 30.01 in 7.0 mi WSW 4.6 mph - 0.00 in   Overcast
11:34 PM 30.2 °F - 28.4 °F 93% 30.01 in 2.5 mi Calm Calm - 0.00 in Snow Light Snow
11:43 PM 30.2 °F - 28.4 °F 93% 30.01 in 1.5 mi Calm Calm - 0.01 in Snow Light Snow
11:48 PM 30.2 °F 26.7 °F 28.4 °F 93% 30.01 in 3.0 mi SW 3.5 mph - 0.01 in Snow Light Snow
11:53 PM 30.0 °F 26.5 °F 28.9 °F 96% 30.10 in 7.0 mi SW 3.5 mph - 0.01 in Snow Light Snow